DW1375 Weather Reports


time (UTC)temp
C
wind
direction
speed
KPH
gust
KPH
rain 1hr
cm
rain 24hr
cm
rain mn
cm
humidity
%
barometer
mb
20260504081522 7 3 0.0 1.6 0.00 0.00 0.00 90 1018.1
20260504050000 9 3 1.6 3.2 0.00 0.00 0.00 90 1019.5
20260504044502 10 3 0.0 1.6 0.00 0.00 0.00 90 1019.3
20260504043100 10 3 0.0 1.6 0.00 0.00 0.00 90 1019.6
20260504041559 10 3 0.0 0.0 0.00 0.00 0.00 90 1019.6
20260504040114 10 3 0.0 0.0 0.00 0.00 0.00 90 1019.7
20260504034632 11 3 0.0 0.0 0.00 0.00 0.00 89 1019.7
20260504033058 11 3 0.0 0.0 0.00 0.00 0.00 89 1019.8
20260504031558 11 3 0.0 0.0 0.00 0.00 0.00 88 1019.8
20260504030121 11 3 0.0 0.0 0.00 0.00 0.00 88 1019.8
20260504024601 11 3 0.0 0.0 0.00 0.00 0.00 88 1019.7
20260504023056 12 3 0.0 0.0 0.00 0.00 0.00 87 1019.6
20260504021557 12 3 0.0 0.0 0.00 0.00 0.00 86 1019.5
20260504020107 13 3 0.0 0.0 0.00 0.00 0.00 85 1019.3
20260504014604 13 3 0.0 0.0 0.00 0.00 0.00 84 1019.4
20260504013057 13 3 0.0 0.0 0.00 0.00 0.00 82 1019.0
20260504011554 15 3 0.0 0.0 0.00 0.00 0.00 78 1018.9
20260504010054 15 3 0.0 0.0 0.00 0.00 0.00 76 1018.8
20260504004553 16 3 0.0 1.6 0.00 0.00 0.00 72 1018.7
20260504003054 17 3 0.0 1.6 0.00 0.00 0.00 70 1018.6
20260504001603 18 3 0.0 0.0 0.00 0.00 0.00 61 1018.7
20260504000152 20 3 0.0 1.6 0.00 0.00 0.00 54 1018.7
20260503234549 21 3 0.0 3.2 0.00 0.00 0.00 47 1018.8
20260503233048 21 324 0.0 6.4 0.00 0.00 0.00 46 1018.8
20260503231552 22 249 0.0 4.8 0.00 0.00 0.00 44 1018.6
20260503230047 22 308 0.0 6.4 0.00 0.00 0.00 41 1018.5
20260503224534 22 272 0.0 4.8 0.00 0.00 0.00 39 1018.6
20260503223032 22 297 4.8 12.9 0.00 0.00 0.00 38 1018.6
20260503221531 22 239 0.0 6.4 0.00 0.00 0.00 38 1018.7
20260503220030 22 64 1.6 8.0 0.00 0.00 0.00 37 1018.9
20260503214529 22 351 4.8 12.9 0.00 0.00 0.00 37 1019.0
20260503213034 22 194 1.6 9.7 0.00 0.00 0.00 38 1019.2
20260503211532 22 83 1.6 9.7 0.00 0.00 0.00 36 1019.5
20260503210024 22 358 1.6 9.7 0.00 0.00 0.00 36 1019.6
20260503204522 22 58 4.8 14.5 0.00 0.00 0.00 37 1019.8
20260503203020 22 62 4.8 12.9 0.00 0.00 0.00 38 1020.1